Hourly Data Report for October 12, 2012

All times are specified in Local Standard Time (LST). Add 1 hour to adjust for Daylight Saving Time where and when it is observed.

KITCHENER/WATERLOO
ONTARIO

43°27'39.000" N
80°22'43.000" W
321.60 m
6144239
71368
YKF

Download Data

Hourly Data (October 2012)
Hourly Data Report for October 12, 2012
Temp Definition
°C
Dew Point Temp Definition
°C
Rel Hum Definition
%
Wind Dir Definition
10's deg

Wind Spd Definition
km/h
Visibility Definition
km
Stn Press Definition
kPa
Hmdx Definition


Wind Chill Definition


Weather Definition


TIME
00:00 Legend Double Dagger 5.2 2.4 82 29 24 16.1 98.06     LegendNANA
01:00 Legend Double Dagger 5.1 0.9 74 29 21 16.1 98.09     LegendNANA
02:00 Legend Double Dagger 5.0 1.0 76 28 15 16.1 98.11     LegendNANA
03:00 Legend Double Dagger 4.7 1.1 77 30 17 16.1 98.16     LegendNANA
04:00 Legend Double Dagger 2.8 0.8 87 30 13 16.1 98.26     LegendNANA
05:00 Legend Double Dagger 2.3 0.7 89 31 17 16.1 98.38     LegendNANA
06:00 Legend Double Dagger 1.4 -0.1 90 31 13 16.1 98.50     LegendNANA
07:00 Legend Double Dagger 1.1 -0.2 91 33 11 16.1 98.65     LegendNANA
08:00 Legend Double Dagger 2.8 0.5 85 31 11 16.1 98.77     LegendNANA
09:00 Legend Double Dagger 4.5 0.6 76 35 15 16.1 98.87     LegendNANA
10:00 Legend Double Dagger 5.2 -0.8 65 36 18 16.1 98.94     LegendNANA
11:00 Legend Double Dagger 6.4 -0.9 60 36 15 16.1 99.02     LegendNANA
12:00 Legend Double Dagger 6.3 -2.0 55 32 17 16.1 99.04     LegendNANA
13:00 Legend Double Dagger 6.9 -3.5 48 32 11 16.1 99.02     LegendNANA
14:00 Legend Double Dagger 7.8 -5.1 40 31 11 16.1 99.02     LegendNANA
15:00 Legend Double Dagger 8.0 -3.4 44 2 15 16.1 99.01     LegendNANA
16:00 Legend Double Dagger 7.6 -5.1 40 31 9 16.1 99.02     LegendNANA
17:00 Legend Double Dagger 6.5 -5.6 42 28 8 16.1 99.04     LegendNANA
18:00 Legend Double Dagger 4.5 -4.5 52 33 5 16.1 99.07     LegendNANA
19:00 Legend Double Dagger -0.1 -3.5 78   0 16.1 99.11     LegendNANA
20:00 Legend Double Dagger -0.5 -3.0 83 LegendMM 4 16.1 99.11   -2 LegendNANA
21:00 Legend Double Dagger -1.3 -3.3 86   0 16.1 99.14     LegendNANA
22:00 Legend Double Dagger -2.6 -3.9 91 30 4 16.1 99.16   -4 LegendNANA
23:00 Legend Double Dagger -2.8 -3.8 93 34 4 16.1 99.16   -4 LegendNANA

Notes on Data Quality.

Legend

  • E = Estimated
  • M = Missing
  • NA = Not Available
  • ‡ = Partner data that is not subject to review by the National Climate Archives
Date modified: